QPF
0.00 0.00 0.00 0.00 0.00 0.00 0.00 0.00 0.00 0.00 0.00 0.00 0.00 0.00 0.00 0.00 0.00 0.00 0.00 0.00 0.00 0.01 0.00 0.00 0.00 0.01 0.01 0.02 0.03 0.03 0.03 0.03 0.03 0.02 0.02 0.03 0.03 0.03 0.04 0.04 0.03 0.03 0.03 0.03
0.00 0.00 0.00 0.00 0.00 0.00 0.00 0.00 0.00 0.00 0.00 0.00 0.00 0.00 0.00 0.00 0.00 0.00 0.00 0.00 0.01 0.00 0.00 0.00 0.01 0.01 0.02 0.02 0.03 0.03 0.02 0.02 0.02 0.02 0.03 0.03 0.03 0.04 0.04 0.04 0.04 0.03 0.03 0.03
0.00 0.00 0.00 0.00 0.00 0.00 0.00 0.00 0.00 0.00 0.00 0.00 0.00 0.00 0.00 0.00 0.00 0.00 0.00 0.01 0.01 0.01 0.01 0.01 0.01 0.01 0.01 0.01 0.02 0.03 0.02 0.01 0.02 0.03 0.05 0.05 0.04 0.04 0.04 0.03 0.03 0.03 0.02 0.02
0.00 0.00 0.00 0.00 0.00 0.00 0.00 0.00 0.00 0.00 0.00 0.00 0.00 0.00 0.00 0.00 0.00 0.00 0.00 0.01 0.01 0.01 0.01 0.01 0.01 0.01 0.01 0.01 0.02 0.02 0.02 0.02 0.03 0.02 0.03 0.04 0.04 0.04 0.03 0.03 0.02 0.01 0.02 0.02
0.00 0.00 0.00 0.00 0.00 0.00 0.00 0.01 0.00 0.00 0.00 0.00 0.00 0.01 0.01 0.01 0.01 0.01 0.01 0.01 0.02 0.02 0.02 0.02 0.02 0.02 0.01 0.01 0.01 0.01 0.02 0.02 0.02 0.03 0.03 0.03 0.03 0.02 0.02 0.02 0.02 0.01 0.01 0.02
0.00 0.00 0.00 0.00 0.00 0.00 0.00 0.02 0.00 0.00 0.00 0.00 0.01 0.01 0.01 0.01 0.00 0.01 0.01 0.01 0.02 0.03 0.04 0.04 0.04 0.03 0.02 0.01 0.01 0.01 0.01 0.01 0.02 0.02 0.03 0.03 0.02 0.02 0.03 0.03 0.03 0.03 0.03 0.03
0.00 0.00 0.00 0.00 0.00 0.00 0.01 0.01 0.01 0.00 0.00 0.00 0.00 0.01 0.01 0.01 0.01 0.02 0.01 0.01 0.02 0.03 0.04 0.04 0.04 0.03 0.02 0.01 0.01 0.01 0.01 0.01 0.02 0.02 0.02 0.02 0.02 0.02 0.03 0.03 0.04 0.04 0.05 0.05
0.00 0.00 0.00 0.00 0.00 0.00 0.01 0.01 0.00 0.00 0.00 0.00 0.00 0.01 0.01 0.01 0.02 0.02 0.02 0.02 0.02 0.02 0.03 0.03 0.02 0.02 0.01 0.01 0.01 0.01 0.01 0.02 0.02 0.02 0.01 0.02 0.01 0.02 0.02 0.03 0.04 0.05 0.05 0.04
0.00 0.00 0.01 0.00 0.01 0.01 0.01 0.01 0.01 0.00 0.00 0.00 0.00 0.01 0.01 0.01 0.01 0.02 0.02 0.02 0.02 0.02 0.02 0.02 0.03 0.03 0.03 0.02 0.02 0.02 0.02 0.02 0.02 0.01 0.01 0.01 0.01 0.02 0.02 0.03 0.03 0.04 0.03 0.03
0.01 0.00 0.00 0.00 0.01 0.01 0.01 0.01 0.00 0.00 0.01 0.01 0.01 0.01 0.01 0.01 0.01 0.01 0.01 0.01 0.01 0.02 0.03 0.06 0.05 0.04 0.03 0.02 0.02 0.01 0.01 0.01 0.01 0.01 0.01 0.01 0.01 0.01 0.01 0.02 0.02 0.03 0.03 0.02
0.00 0.01 0.00 0.01 0.01 0.01 0.01 0.00 0.00 0.01 0.01 0.01 0.01 0.01 0.01 0.01 0.01 0.01 0.01 0.02 0.02 0.02 0.04 0.06 0.05 0.03 0.01 0.01 0.01 0.01 0.01 0.01 0.01 0.00 0.00 0.00 0.01 0.01 0.01 0.01 0.01 0.02 0.02 0.01
0.00 0.01 0.01 0.01 0.02 0.01 0.01 0.01 0.01 0.03 0.02 0.01 0.01 0.01 0.01 0.03 0.05 0.05 0.06 0.04 0.01 0.01 0.00 0.01 0.01 0.01 0.00 0.01 0.01 0.01 0.01 0.01 0.00 0.00 0.00 0.00 0.00 0.00 0.01 0.01 0.01 0.01 0.01 0.01
0.00 0.00 0.01 0.02 0.04 0.04 0.02 0.02 0.03 0.06 0.06 0.02 0.01 0.01 0.02 0.06 0.08 0.05 0.04 0.02 0.01 0.00 0.00 0.00 0.00 0.00 0.01 0.01 0.01 0.00 0.01 0.01 0.01 0.01 0.01 0.00 0.00 0.00 0.01 0.01 0.01 0.01 0.01 0.01
0.00 0.00 0.01 0.02 0.03 0.04 0.02 0.01 0.01 0.03 0.04 0.03 0.02 0.01 0.01 0.02 0.03 0.02 0.01 0.01 0.00 0.00 0.00 0.00 0.00 0.00 0.00 0.00 0.00 0.00 0.00 0.01 0.01 0.01 0.00 0.00 0.00 0.00 0.01 0.01 0.01 0.01 0.01 0.01
0.00 0.00 0.01 0.01 0.01 0.01 0.01 0.01 0.01 0.01 0.01 0.01 0.01 0.01 0.01 0.01 0.01 0.01 0.01 0.01 0.01 0.00 0.00 0.00 0.00 0.00 0.00 0.00 0.01 0.01 0.01 0.01 0.01 0.01 0.00 0.00 0.00 0.00 0.00 0.01 0.00 0.01 0.01 0.01
0.00 0.00 0.00 0.00 0.00 0.00 0.00 0.00 0.01 0.01 0.01 0.01 0.01 0.01 0.01 0.01 0.01 0.01 0.01 0.01 0.01 0.00 0.00 0.00 0.01 0.00 0.00 0.01 0.01 0.01 0.01 0.01 0.01 0.01 0.01 0.01 0.01 0.01 0.01 0.01 0.01 0.01 0.01 0.01
0.01 0.01 0.01 0.00 0.00 0.00 0.00 0.00 0.01 0.01 0.01 0.01 0.01 0.01 0.01 0.01 0.01 0.01 0.01 0.01 0.01 0.00 0.00 0.01 0.01 0.00 0.01 0.01 0.01 0.01 0.01 0.01 0.02 0.01 0.02 0.02 0.01 0.01 0.01 0.01 0.01 0.01 0.01 0.01
0.00 0.01 0.01 0.01 0.00 0.01 0.01 0.01 0.01 0.02 0.02 0.02 0.02 0.02 0.02 0.01 0.01 0.01 0.01 0.01 0.01 0.01 0.01 0.01 0.01 0.01 0.02 0.02 0.02 0.01 0.01 0.02 0.02 0.02 0.02 0.02 0.02 0.02 0.01 0.01 0.01 0.01 0.01 0.01
0.00 0.00 0.00 0.01 0.01 0.01 0.01 0.01 0.01 0.01 0.01 0.02 0.02 0.02 0.02 0.02 0.02 0.01 0.01 0.01 0.01 0.01 0.01 0.01 0.01 0.02 0.02 0.02 0.02 0.01 0.01 0.01 0.01 0.02 0.02 0.02 0.02 0.01 0.01 0.01 0.01 0.01 0.01 0.01
0.00 0.00 0.00 0.00 0.01 0.01 0.01 0.01 0.02 0.02 0.03 0.03 0.03 0.02 0.02 0.02 0.02 0.01 0.01 0.02 0.01 0.01 0.01 0.01 0.01 0.01 0.02 0.02 0.02 0.02 0.02 0.02 0.02 0.02 0.02 0.02 0.02 0.01 0.01 0.01 0.01 0.01 0.01 0.01
0.00 0.00 0.00 0.00 0.01 0.01 0.01 0.01 0.01 0.02 0.02 0.02 0.02 0.02 0.02 0.01 0.01 0.02 0.02 0.02 0.01 0.01 0.01 0.01 0.01 0.01 0.01 0.01 0.01 0.01 0.01 0.02 0.02 0.02 0.02 0.02 0.01 0.02 0.02 0.01 0.01 0.01 0.01 0.01
0.00 0.00 0.00 0.00 0.00 0.01 0.01 0.02 0.02 0.02 0.02 0.01 0.01 0.01 0.01 0.01 0.02 0.02 0.02 0.02 0.02 0.01 0.01 0.01 0.01 0.01 0.01 0.01 0.01 0.01 0.01 0.01 0.01 0.02 0.02 0.01 0.01 0.01 0.01 0.01 0.01 0.01 0.01 0.01
0.01 0.01 0.01 0.01 0.01 0.01 0.02 0.02 0.03 0.02 0.02 0.02 0.02 0.02 0.02 0.02 0.02 0.02 0.02 0.02 0.02 0.02 0.01 0.01 0.01 0.01 0.01 0.01 0.01 0.01 0.01 0.01 0.01 0.02 0.02 0.02 0.02 0.01 0.01 0.01 0.01 0.01 0.01 0.01
0.02 0.02 0.01 0.01 0.01 0.01 0.01 0.02 0.03 0.02 0.02 0.02 0.02 0.03 0.03 0.02 0.01 0.01 0.01 0.01 0.01 0.01 0.01 0.01 0.02 0.01 0.02 0.03 0.02 0.02 0.02 0.01 0.01 0.01 0.01 0.02 0.01 0.01 0.01 0.01 0.01 0.01 0.01 0.01
0.03 0.02 0.02 0.03 0.02 0.02 0.02 0.02 0.02 0.02 0.02 0.01 0.01 0.02 0.02 0.02 0.01 0.01 0.01 0.00 0.00 0.00 0.00 0.00 0.01 0.01 0.02 0.03 0.03 0.02 0.02 0.01 0.01 0.01 0.01 0.01 0.01 0.01 0.01 0.01 0.01 0.01 0.01 0.02
0.03 0.02 0.03 0.04 0.04 0.03 0.03 0.02 0.02 0.02 0.02 0.02 0.02 0.01 0.02 0.01 0.01 0.01 0.01 0.01 0.00 0.00 0.00 0.00 0.01 0.01 0.01 0.02 0.03 0.02 0.02 0.01 0.01 0.01 0.01 0.01 0.00 0.00 0.00 0.01 0.01 0.01 0.00 0.01
0.02 0.02 0.02 0.02 0.03 0.04 0.04 0.04 0.04 0.04 0.04 0.03 0.02 0.01 0.01 0.01 0.00 0.01 0.01 0.01 0.01 0.00 0.01 0.00 0.00 0.01 0.01 0.01 0.01 0.01 0.01 0.01 0.01 0.02 0.02 0.01 0.00 0.00 0.00 0.00 0.00 0.00 0.00 0.00
MSLP
1007.86 1007.81 1007.75 1007.68 1007.58 1007.41 1007.13 1006.70 1006.11 1005.36 1004.48 1003.53 1002.58 1001.74 1001.06 1000.63 1000.47 1000.58 1000.94 1001.49 1002.16 1002.89 1003.62 1004.30 1004.93 1005.50 1006.01 1006.49 1006.95 1007.40 1007.82 1008.22 1008.55 1008.81 1008.96 1009.01 1008.96 1008.82 1008.60 1008.34 1008.06 1007.76 1007.47 1007.18
1008.20 1008.07 1007.88 1007.63 1007.31 1006.91 1006.41 1005.81 1005.10 1004.30 1003.44 1002.57 1001.75 1001.06 1000.54 1000.23 1000.17 1000.34 1000.72 1001.27 1001.92 1002.63 1003.35 1004.05 1004.70 1005.31 1005.87 1006.40 1006.89 1007.36 1007.78 1008.15 1008.45 1008.67 1008.78 1008.80 1008.72 1008.56 1008.34 1008.07 1007.79 1007.49 1007.18 1006.87
1008.51 1008.33 1008.03 1007.63 1007.13 1006.54 1005.86 1005.12 1004.31 1003.48 1002.64 1001.86 1001.16 1000.60 1000.22 1000.03 1000.06 1000.27 1000.67 1001.21 1001.84 1002.53 1003.24 1003.94 1004.62 1005.27 1005.87 1006.44 1006.96 1007.44 1007.85 1008.18 1008.44 1008.59 1008.65 1008.61 1008.48 1008.29 1008.04 1007.76 1007.46 1007.15 1006.83 1006.50
1008.77 1008.54 1008.17 1007.66 1007.04 1006.30 1005.50 1004.65 1003.79 1002.94 1002.15 1001.44 1000.86 1000.43 1000.17 1000.09 1000.19 1000.45 1000.85 1001.38 1001.99 1002.65 1003.35 1004.05 1004.74 1005.41 1006.05 1006.64 1007.18 1007.64 1008.02 1008.31 1008.49 1008.57 1008.55 1008.44 1008.25 1008.01 1007.72 1007.41 1007.08 1006.75 1006.41 1006.06
1008.96 1008.70 1008.29 1007.72 1007.01 1006.20 1005.32 1004.42 1003.53 1002.70 1001.97 1001.35 1000.88 1000.57 1000.42 1000.43 1000.60 1000.90 1001.31 1001.82 1002.41 1003.05 1003.72 1004.41 1005.10 1005.77 1006.41 1007.00 1007.51 1007.94 1008.28 1008.49 1008.60 1008.59 1008.49 1008.29 1008.03 1007.73 1007.39 1007.05 1006.69 1006.33 1005.96 1005.60
1009.06 1008.80 1008.37 1007.78 1007.04 1006.20 1005.30 1004.40 1003.53 1002.75 1002.09 1001.57 1001.21 1001.00 1000.96 1001.06 1001.28 1001.61 1002.04 1002.54 1003.10 1003.70 1004.34 1005.00 1005.66 1006.30 1006.91 1007.46 1007.94 1008.31 1008.57 1008.70 1008.72 1008.63 1008.43 1008.16 1007.83 1007.47 1007.09 1006.71 1006.32 1005.94 1005.55 1005.17
1009.09 1008.83 1008.41 1007.84 1007.12 1006.30 1005.44 1004.58 1003.77 1003.06 1002.48 1002.06 1001.80 1001.70 1001.75 1001.92 1002.20 1002.56 1002.99 1003.48 1004.01 1004.58 1005.16 1005.77 1006.37 1006.96 1007.51 1007.99 1008.39 1008.69 1008.86 1008.91 1008.84 1008.66 1008.38 1008.05 1007.67 1007.27 1006.86 1006.45 1006.04 1005.64 1005.24 1004.85
1009.05 1008.82 1008.43 1007.91 1007.25 1006.50 1005.72 1004.94 1004.22 1003.60 1003.12 1002.80 1002.64 1002.62 1002.75 1002.98 1003.30 1003.68 1004.11 1004.58 1005.07 1005.58 1006.11 1006.64 1007.17 1007.67 1008.14 1008.53 1008.83 1009.03 1009.11 1009.08 1008.93 1008.68 1008.35 1007.97 1007.56 1007.13 1006.71 1006.30 1005.89 1005.48 1005.08 1004.69
1008.96 1008.76 1008.44 1007.99 1007.43 1006.79 1006.12 1005.46 1004.85 1004.34 1003.96 1003.73 1003.65 1003.71 1003.89 1004.17 1004.51 1004.90 1005.32 1005.75 1006.19 1006.64 1007.10 1007.54 1007.97 1008.37 1008.73 1009.02 1009.22 1009.32 1009.31 1009.20 1008.98 1008.69 1008.33 1007.93 1007.51 1007.09 1006.67 1006.27 1005.87 1005.48 1005.09 1004.70
1008.82 1008.67 1008.43 1008.09 1007.66 1007.16 1006.62 1006.10 1005.62 1005.23 1004.95 1004.81 1004.80 1004.91 1005.12 1005.41 1005.76 1006.14 1006.53 1006.92 1007.30 1007.68 1008.05 1008.40 1008.72 1009.01 1009.26 1009.44 1009.54 1009.54 1009.46 1009.28 1009.02 1008.70 1008.32 1007.92 1007.52 1007.12 1006.73 1006.35 1005.97 1005.60 1005.23 1004.85
1008.62 1008.53 1008.40 1008.19 1007.91 1007.57 1007.19 1006.82 1006.49 1006.22 1006.04 1005.97 1006.01 1006.15 1006.38 1006.66 1006.99 1007.33 1007.68 1008.02 1008.33 1008.63 1008.91 1009.16 1009.38 1009.57 1009.71 1009.78 1009.79 1009.72 1009.57 1009.34 1009.05 1008.72 1008.35 1007.96 1007.58 1007.21 1006.85 1006.50 1006.16 1005.81 1005.46 1005.10
1008.33 1008.33 1008.31 1008.25 1008.13 1007.97 1007.77 1007.57 1007.38 1007.23 1007.14 1007.14 1007.22 1007.37 1007.59 1007.85 1008.14 1008.44 1008.73 1009.00 1009.25 1009.47 1009.66 1009.82 1009.95 1010.04 1010.08 1010.07 1010.00 1009.87 1009.67 1009.41 1009.11 1008.77 1008.41 1008.05 1007.69 1007.35 1007.02 1006.70 1006.38 1006.06 1005.73 1005.39
1007.95 1008.05 1008.15 1008.24 1008.30 1008.31 1008.30 1008.26 1008.22 1008.19 1008.20 1008.25 1008.36 1008.52 1008.72 1008.95 1009.19 1009.43 1009.65 1009.86 1010.03 1010.18 1010.30 1010.38 1010.43 1010.44 1010.41 1010.34 1010.21 1010.03 1009.80 1009.52 1009.21 1008.87 1008.52 1008.17 1007.83 1007.51 1007.20 1006.90 1006.60 1006.30 1005.99 1005.67
1007.48 1007.67 1007.90 1008.14 1008.36 1008.56 1008.72 1008.85 1008.95 1009.04 1009.14 1009.25 1009.38 1009.54 1009.72 1009.91 1010.10 1010.29 1010.45 1010.59 1010.70 1010.79 1010.84 1010.86 1010.85 1010.80 1010.72 1010.60 1010.43 1010.22 1009.97 1009.68 1009.37 1009.03 1008.69 1008.35 1008.02 1007.70 1007.40 1007.11 1006.82 1006.54 1006.25 1005.95
1006.92 1007.21 1007.56 1007.94 1008.33 1008.69 1009.01 1009.29 1009.53 1009.74 1009.92 1010.09 1010.25 1010.42 1010.58 1010.74 1010.89 1011.02 1011.13 1011.22 1011.28 1011.31 1011.31 1011.28 1011.23 1011.14 1011.02 1010.87 1010.68 1010.46 1010.20 1009.90 1009.59 1009.26 1008.92 1008.58 1008.25 1007.93 1007.63 1007.34 1007.06 1006.79 1006.51 1006.24
1006.34 1006.72 1007.18 1007.69 1008.22 1008.72 1009.18 1009.60 1009.95 1010.26 1010.53 1010.75 1010.95 1011.13 1011.29 1011.43 1011.55 1011.65 1011.72 1011.77 1011.78 1011.77 1011.74 1011.67 1011.58 1011.47 1011.33 1011.16 1010.96 1010.73 1010.47 1010.18 1009.87 1009.54 1009.21 1008.87 1008.54 1008.22 1007.92 1007.63 1007.35 1007.09 1006.84 1006.59
1005.81 1006.27 1006.83 1007.44 1008.07 1008.69 1009.26 1009.79 1010.25 1010.64 1010.98 1011.26 1011.50 1011.70 1011.87 1012.00 1012.11 1012.19 1012.24 1012.26 1012.24 1012.20 1012.14 1012.05 1011.94 1011.81 1011.65 1011.47 1011.26 1011.03 1010.78 1010.50 1010.19 1009.88 1009.55 1009.22 1008.89 1008.57 1008.27 1007.98 1007.72 1007.47 1007.24 1007.03
1005.41 1005.95 1006.58 1007.26 1007.97 1008.67 1009.32 1009.92 1010.45 1010.91 1011.31 1011.64 1011.92 1012.15 1012.34 1012.49 1012.60 1012.67 1012.71 1012.72 1012.69 1012.63 1012.54 1012.43 1012.30 1012.15 1011.98 1011.79 1011.58 1011.35 1011.10 1010.83 1010.54 1010.24 1009.92 1009.60 1009.29 1008.98 1008.68 1008.41 1008.16 1007.93 1007.73 1007.56
1005.22 1005.82 1006.50 1007.24 1007.99 1008.72 1009.42 1010.05 1010.63 1011.13 1011.57 1011.94 1012.26 1012.52 1012.74 1012.91 1013.04 1013.13 1013.17 1013.18 1013.14 1013.07 1012.97 1012.84 1012.69 1012.51 1012.33 1012.13 1011.91 1011.68 1011.43 1011.17 1010.89 1010.60 1010.30 1010.01 1009.71 1009.42 1009.14 1008.89 1008.66 1008.45 1008.29 1008.15
1005.27 1005.93 1006.65 1007.40 1008.16 1008.90 1009.60 1010.24 1010.82 1011.34 1011.80 1012.20 1012.55 1012.85 1013.10 1013.30 1013.46 1013.57 1013.63 1013.65 1013.62 1013.54 1013.43 1013.28 1013.11 1012.92 1012.71 1012.49 1012.26 1012.02 1011.77 1011.51 1011.24 1010.96 1010.68 1010.40 1010.13 1009.86 1009.60 1009.37 1009.16 1008.99 1008.85 1008.75
1005.58 1006.27 1007.01 1007.76 1008.50 1009.22 1009.89 1010.51 1011.07 1011.58 1012.04 1012.45 1012.82 1013.14 1013.42 1013.66 1013.86 1014.00 1014.10 1014.13 1014.12 1014.05 1013.94 1013.78 1013.59 1013.38 1013.15 1012.90 1012.65 1012.39 1012.13 1011.86 1011.59 1011.32 1011.06 1010.79 1010.53 1010.28 1010.05 1009.83 1009.65 1009.49 1009.37 1009.28
1006.09 1006.81 1007.55 1008.28 1008.98 1009.65 1010.26 1010.83 1011.35 1011.83 1012.27 1012.68 1013.06 1013.40 1013.72 1014.00 1014.23 1014.42 1014.55 1014.62 1014.63 1014.58 1014.48 1014.32 1014.13 1013.90 1013.65 1013.38 1013.10 1012.82 1012.54 1012.25 1011.98 1011.70 1011.43 1011.17 1010.92 1010.68 1010.46 1010.26 1010.08 1009.93 1009.82 1009.74
1006.73 1007.46 1008.18 1008.88 1009.53 1010.13 1010.68 1011.19 1011.65 1012.09 1012.50 1012.89 1013.26 1013.62 1013.97 1014.28 1014.55 1014.79 1014.96 1015.08 1015.13 1015.11 1015.03 1014.89 1014.70 1014.47 1014.21 1013.92 1013.62 1013.32 1013.01 1012.71 1012.42 1012.13 1011.85 1011.58 1011.33 1011.09 1010.87 1010.67 1010.49 1010.34 1010.22 1010.13
1007.42 1008.14 1008.83 1009.48 1010.07 1010.60 1011.09 1011.52 1011.93 1012.31 1012.68 1013.05 1013.42 1013.79 1014.14 1014.49 1014.80 1015.08 1015.30 1015.47 1015.56 1015.59 1015.55 1015.44 1015.27 1015.05 1014.80 1014.51 1014.20 1013.89 1013.57 1013.25 1012.94 1012.63 1012.34 1012.06 1011.80 1011.55 1011.32 1011.11 1010.92 1010.76 1010.63 1010.53
1008.06 1008.76 1009.42 1010.01 1010.54 1011.01 1011.42 1011.80 1012.14 1012.48 1012.81 1013.15 1013.51 1013.87 1014.24 1014.61 1014.95 1015.26 1015.54 1015.75 1015.90 1015.97 1015.98 1015.92 1015.79 1015.61 1015.38 1015.11 1014.82 1014.51 1014.19 1013.87 1013.55 1013.24 1012.94 1012.65 1012.38 1012.12 1011.88 1011.66 1011.46 1011.29 1011.14 1011.01
1008.60 1009.26 1009.87 1010.42 1010.89 1011.30 1011.66 1011.99 1012.29 1012.58 1012.88 1013.19 1013.53 1013.89 1014.26 1014.63 1014.99 1015.33 1015.64 1015.89 1016.09 1016.22 1016.28 1016.27 1016.20 1016.07 1015.89 1015.67 1015.42 1015.14 1014.85 1014.55 1014.25 1013.94 1013.65 1013.37 1013.10 1012.84 1012.60 1012.37 1012.17 1011.98 1011.82 1011.68
1009.00 1009.62 1010.18 1010.68 1011.11 1011.48 1011.80 1012.08 1012.35 1012.62 1012.90 1013.19 1013.51 1013.85 1014.20 1014.57 1014.94 1015.29 1015.61 1015.89 1016.12 1016.29 1016.41 1016.46 1016.46 1016.40 1016.29 1016.14 1015.95 1015.74 1015.50 1015.25 1014.99 1014.73 1014.47 1014.21 1013.96 1013.72 1013.49 1013.28 1013.08 1012.89 1012.73 1012.58
Thickness
5790 5794 5794 5789 5789 5790 5786 5787 5782 5785 5787 5793 5794 5793 5791 5790 5787 5783 5779 5775 5772 5769 5766 5762 5758 5754 5750 5747 5744 5741 5736 5733 5729 5727 5724 5721 5718 5715 5713 5711 5710 5706 5704 5702
5776 5786 5786 5782 5787 5787 5784 5785 5784 5784 5785 5798 5797 5793 5786 5784 5781 5777 5774 5771 5767 5764 5760 5757 5753 5749 5746 5742 5739 5735 5731 5728 5725 5722 5719 5716 5713 5711 5708 5705 5703 5701 5698 5696
5767 5777 5773 5768 5782 5782 5782 5787 5784 5778 5785 5791 5785 5781 5779 5778 5776 5773 5771 5767 5763 5760 5756 5753 5750 5746 5742 5738 5735 5730 5726 5723 5720 5717 5714 5711 5709 5706 5702 5699 5697 5695 5692 5690
5764 5758 5743 5773 5792 5788 5781 5783 5787 5786 5787 5785 5782 5781 5780 5777 5773 5770 5767 5763 5759 5756 5753 5750 5748 5744 5738 5734 5730 5725 5721 5718 5715 5712 5709 5706 5703 5700 5696 5694 5692 5689 5686 5684
5757 5752 5757 5772 5780 5779 5772 5771 5783 5781 5781 5781 5780 5775 5772 5774 5772 5767 5764 5760 5755 5752 5749 5745 5741 5737 5732 5727 5724 5719 5715 5712 5709 5706 5703 5700 5696 5693 5691 5688 5685 5683 5681 5678
5750 5741 5742 5763 5779 5783 5773 5760 5778 5777 5774 5773 5769 5760 5766 5768 5765 5762 5758 5754 5750 5746 5742 5737 5733 5729 5724 5720 5716 5712 5708 5705 5703 5700 5696 5693 5690 5687 5685 5682 5680 5678 5675 5672
5744 5742 5755 5768 5774 5771 5748 5754 5771 5773 5770 5767 5763 5764 5766 5763 5758 5754 5750 5747 5743 5738 5733 5729 5725 5721 5716 5712 5708 5705 5703 5699 5696 5693 5690 5687 5684 5682 5679 5677 5674 5671 5668 5666
5740 5734 5742 5762 5763 5755 5755 5764 5767 5767 5766 5762 5760 5760 5758 5754 5749 5746 5741 5738 5735 5729 5725 5722 5719 5714 5709 5704 5702 5699 5696 5692 5689 5686 5685 5683 5678 5675 5673 5670 5667 5664 5661 5659
5743 5744 5751 5758 5757 5758 5759 5757 5759 5760 5760 5757 5753 5751 5749 5745 5741 5738 5735 5731 5727 5723 5718 5715 5712 5708 5702 5699 5696 5692 5689 5685 5682 5679 5676 5675 5672 5669 5667 5664 5662 5660 5657 5654
5735 5743 5746 5748 5751 5752 5753 5753 5754 5755 5753 5751 5746 5744 5740 5737 5733 5730 5727 5723 5720 5716 5712 5707 5704 5700 5697 5693 5690 5686 5682 5678 5676 5673 5670 5667 5665 5665 5663 5660 5657 5654 5651 5648
5726 5733 5737 5740 5742 5744 5745 5747 5747 5747 5746 5744 5740 5736 5733 5729 5725 5722 5719 5716 5713 5709 5705 5701 5698 5694 5691 5687 5683 5679 5676 5673 5670 5668 5666 5662 5659 5656 5654 5651 5648 5644 5643 5641
5723 5727 5728 5730 5736 5738 5737 5737 5738 5737 5735 5736 5733 5729 5726 5722 5718 5715 5712 5709 5705 5702 5699 5695 5692 5688 5684 5681 5677 5673 5670 5668 5666 5664 5661 5659 5655 5652 5645 5642 5637 5633 5630 5627
5722 5725 5725 5727 5729 5731 5731 5731 5732 5730 5728 5726 5726 5723 5719 5714 5710 5707 5704 5701 5698 5695 5693 5689 5686 5681 5678 5674 5670 5667 5664 5662 5661 5659 5655 5653 5650 5647 5643 5637 5630 5627 5623 5619
5715 5715 5714 5718 5720 5723 5724 5725 5726 5724 5722 5720 5719 5715 5712 5708 5703 5699 5697 5695 5693 5690 5686 5683 5679 5675 5672 5668 5664 5661 5659 5657 5653 5651 5650 5647 5644 5641 5638 5634 5630 5626 5619 5613
5706 5708 5709 5712 5714 5716 5717 5717 5716 5714 5713 5712 5711 5708 5704 5700 5697 5694 5692 5689 5686 5683 5680 5676 5672 5669 5666 5663 5659 5656 5654 5651 5648 5646 5644 5641 5638 5635 5632 5628 5624 5621 5619 5613
5700 5703 5703 5703 5704 5707 5708 5708 5707 5706 5705 5703 5701 5700 5699 5696 5692 5688 5686 5683 5679 5677 5673 5669 5666 5663 5661 5657 5654 5651 5647 5643 5639 5639 5637 5634 5630 5627 5624 5621 5618 5615 5612 5609
5690 5692 5694 5695 5697 5699 5701 5701 5701 5699 5698 5696 5694 5693 5691 5688 5684 5680 5678 5677 5674 5671 5667 5663 5660 5658 5655 5651 5648 5646 5643 5639 5631 5631 5628 5625 5622 5619 5616 5614 5611 5608 5604 5600
5689 5691 5693 5693 5693 5694 5694 5695 5695 5693 5692 5690 5688 5685 5682 5679 5676 5673 5672 5670 5666 5662 5660 5658 5655 5652 5649 5645 5642 5640 5637 5633 5628 5624 5621 5617 5614 5611 5609 5606 5603 5600 5597 5594
5684 5686 5688 5689 5690 5690 5690 5690 5689 5688 5686 5683 5680 5677 5675 5673 5669 5666 5664 5661 5658 5655 5653 5652 5646 5645 5643 5639 5635 5633 5630 5626 5622 5618 5614 5609 5606 5605 5602 5599 5596 5593 5590 5587
5677 5680 5681 5682 5683 5683 5682 5682 5682 5680 5679 5678 5674 5670 5667 5664 5662 5660 5657 5654 5654 5652 5649 5645 5642 5640 5637 5633 5628 5627 5624 5620 5616 5612 5608 5605 5602 5598 5595 5592 5589 5586 5583 5579
5669 5670 5672 5673 5674 5675 5675 5675 5674 5672 5671 5670 5666 5663 5660 5658 5656 5653 5650 5648 5645 5643 5640 5635 5635 5633 5630 5625 5621 5622 5619 5615 5610 5606 5602 5598 5595 5591 5588 5585 5582 5578 5576 5573
5660 5662 5663 5665 5665 5665 5666 5666 5665 5664 5663 5660 5658 5656 5653 5651 5649 5646 5643 5642 5639 5633 5633 5632 5629 5623 5621 5617 5617 5615 5612 5608 5604 5600 5596 5592 5588 5585 5582 5579 5576 5573 5569 5566
5651 5653 5655 5656 5657 5657 5657 5657 5656 5655 5654 5652 5650 5648 5646 5644 5643 5640 5637 5635 5633 5626 5626 5624 5618 5613 5609 5611 5610 5608 5604 5601 5597 5594 5591 5587 5583 5580 5577 5573 5570 5567 5564 5560
5642 5644 5646 5648 5649 5647 5646 5647 5646 5645 5644 5643 5643 5641 5639 5636 5635 5635 5632 5625 5621 5619 5619 5612 5607 5604 5602 5605 5603 5600 5597 5595 5592 5589 5585 5582 5578 5575 5571 5568 5564 5561 5558 5555
5634 5636 5638 5638 5638 5638 5638 5638 5636 5636 5635 5635 5634 5632 5632 5631 5629 5627 5624 5620 5614 5611 5611 5605 5600 5597 5598 5599 5596 5593 5591 5588 5585 5582 5578 5575 5572 5569 5565 5562 5559 5556 5553 5550
5627 5628 5629 5629 5630 5630 5631 5631 5630 5629 5629 5627 5625 5625 5624 5623 5621 5619 5616 5613 5609 5605 5605 5601 5598 5594 5595 5593 5589 5586 5584 5581 5578 5575 5572 5568 5566 5563 5559 5556 5553 5551 5548 5545
5621 5621 5621 5623 5623 5624 5624 5623 5622 5621 5621 5619 5618 5617 5616 5615 5614 5612 5609 5607 5604 5601 5599 5596 5594 5591 5589 5586 5583 5580 5578 5575 5572 5569 5566 5562 5559 5556 5553 5550 5548 5545 5543 5541